Location: Malvern Link
(52.1333°N, 2.3000°W)
Time: 17:07:23
(UTC+00:00)

SPROUT - Pass Details

Date: 07 July 2022
Orbit: 588 x 598 km, 97.9° (Epoch: 09 August)

Event Time Altitude Azimuth Distance (km) Brightness Sun altitude
Exits shadow 01:18:12 23° 201° (SSW) 1,261 ? -14.0°
Maximum altitude 01:20:25 44° 261° (W) 821 ? -13.9°
Drops below altitude 10° 01:24:26 10° 334° (NNW) 1,932 ? -13.7°
Sets 01:26:42 0° 341° (NNW) 2,840 ? -13.6°
